Location: Deer Path Park
(40.5570°N, 74.8450°W)
Time: 06:13:34
(UTC-05:00)

Iridium 49 - Visible Passes

Search period start: 04 March 2015 00:00
Search period end: 14 March 2015 01:00
Orbit: 776 x 779 km, 86.4° (Epoch: 03 March)

Date Brightness Start Highest point End Pass type
(mag) Time Alt. Az. Time Alt. Az. Time Alt. Az.
04 Mar 7.3 05:04:57 10° SSE 05:09:50 43° E 05:14:46 10° NNE visible
05 Mar 8.4 04:32:27 10° SE 04:36:28 24° E 04:40:38 10° NNE visible
05 Mar 9.1 18:24:05 10° NW 18:27:26 17° W 18:30:32 10° WSW visible
06 Mar 9.2 04:01:05 10° ESE 04:03:12 13° ENE 04:05:37 10° NE visible
06 Mar 6.0 05:38:11 10° S 05:43:22 71° W 05:48:36 10° N visible
07 Mar 6.5 05:04:44 10° S 05:09:51 63° E 05:15:02 10° N visible
08 Mar 7.7 05:31:51 10° SSE 05:36:27 34° E 05:41:09 10° NNE visible
08 Mar 9.5 19:25:36 10° WNW 19:27:20 11° WNW 19:28:45 10° W visible
09 Mar 8.7 04:59:41 10° ESE 05:03:08 19° E 05:06:47 10° NE visible
09 Mar 6.2 06:38:29 10° SSW 06:43:31 48° W 06:48:34 10° N visible
10 Mar 6.0 06:04:43 10° S 06:09:55 89° WSW 06:15:11 10° N visible
11 Mar 7.0 05:31:29 10° SSE 05:36:28 49° E 05:41:30 10° NNE visible
12 Mar 8.1 04:58:50 10° SE 05:03:05 27° E 05:07:28 10° NNE visible
12 Mar 6.7 06:39:01 10° SW 06:43:43 33° W 06:48:24 10° NNW visible
13 Mar 8.9 04:27:07 10° ESE 04:29:48 15° E 04:32:44 10° NE visible
13 Mar 6.0 06:04:53 10° SSW 06:10:02 62° W 06:15:13 10° N visible
